Stündliche Wetter Kytaihorod

Heute, 11 Mai, Dienstag

Zeit Temperatur Niederschläge Wind Luftdruck Luftfeuchtigkeit
00:00 +10°C° 0.2 mm 7 m/S 756 mmHg 67%
01:00 +9°C° 0.2 mm 7 m/S 756 mmHg 72%
02:00 +9°C° 0 mm 7 m/S 756 mmHg 77%
03:00 +9°C° 0 mm 7 m/S 755 mmHg 77%
04:00 +9°C° 0 mm 7 m/S 755 mmHg 76%
05:00 +9°C° 0 mm 6 m/S 755 mmHg 76%
06:00 +10°C° 0 mm 7 m/S 755 mmHg 74%
07:00 +12°C° 0 mm 7 m/S 755 mmHg 72%
08:00 +13°C° 0 mm 8 m/S 754 mmHg 70%
09:00 +15°C° 0 mm 8 m/S 754 mmHg 69%
10:00 +16°C° 0 mm 8 m/S 754 mmHg 68%
11:00 +17°C° 0 mm 8 m/S 755 mmHg 67%
12:00 +15°C° 0.1 mm 7 m/S 755 mmHg 70%
13:00 +14°C° 0.1 mm 7 m/S 755 mmHg 72%
14:00 +13°C° 0.1 mm 6 m/S 755 mmHg 75%
15:00 +13°C° 0 mm 6 m/S 755 mmHg 69%
16:00 +14°C° 0 mm 6 m/S 755 mmHg 63%
17:00 +14°C° 0 mm 6 m/S 755 mmHg 57%
18:00 +12°C° 0 mm 5 m/S 755 mmHg 63%
19:00 +10°C° 0 mm 4 m/S 755 mmHg 68%
20:00 +8°C° 0 mm 4 m/S 756 mmHg 73%
21:00 +7°C° 0 mm 4 m/S 755 mmHg 76%
22:00 +7°C° 0 mm 5 m/S 755 mmHg 78%
23:00 +7°C° 0 mm 5 m/S 755 mmHg 80%

Morgen, 12 Mai, Mittwoch

Zeit Temperatur Niederschläge Wind Luftdruck Luftfeuchtigkeit
00:00 +7°C° 0 mm 6 m/S 755 mmHg 80%
01:00 +7°C° 0 mm 6 m/S 755 mmHg 80%
02:00 +7°C° 0 mm 6 m/S 755 mmHg 80%
03:00 +7°C° 0.1 mm 6 m/S 755 mmHg 82%
04:00 +7°C° 0.1 mm 6 m/S 755 mmHg 84%
05:00 +7°C° 0.1 mm 5 m/S 755 mmHg 86%
06:00 +7°C° 0.1 mm 5 m/S 755 mmHg 84%
07:00 +7°C° 0.1 mm 5 m/S 755 mmHg 82%
08:00 +8°C° 0.1 mm 6 m/S 755 mmHg 81%
09:00 +8°C° 0.2 mm 5 m/S 755 mmHg 79%
10:00 +8°C° 0.2 mm 5 m/S 754 mmHg 77%
11:00 +10°C° 0.2 mm 4 m/S 754 mmHg 76%
12:00 +10°C° 0.4 mm 4 m/S 754 mmHg 77%
13:00 +10°C° 0.4 mm 4 m/S 754 mmHg 79%
14:00 +10°C° 0.4 mm 4 m/S 754 mmHg 80%
15:00 +10°C° 0.4 mm 3 m/S 753 mmHg 80%
16:00 +10°C° 0.4 mm 2 m/S 753 mmHg 81%
17:00 +10°C° 0.4 mm 1 m/S 753 mmHg 81%
18:00 +10°C° 0.1 mm 1 m/S 753 mmHg 84%
19:00 +9°C° 0.1 mm 1 m/S 753 mmHg 86%
20:00 +9°C° 0.1 mm 1 m/S 753 mmHg 88%
21:00 +8°C° 0 mm 1 m/S 753 mmHg 89%
22:00 +8°C° 0 mm 1 m/S 753 mmHg 89%
23:00 +6°C° 0 mm 2 m/S 753 mmHg 89%

übermorgen, 13 Mai, Donnerstag

Zeit Temperatur Niederschläge Wind Luftdruck Luftfeuchtigkeit
00:00 +6°C° 0 mm 2 m/S 753 mmHg 89%
01:00 +6°C° 0 mm 2 m/S 753 mmHg 89%
02:00 +7°C° 0 mm 2 m/S 753 mmHg 88%
03:00 +6°C° 0 mm 2 m/S 753 mmHg 89%
04:00 +6°C° 0 mm 2 m/S 753 mmHg 89%
05:00 +6°C° 0 mm 2 m/S 753 mmHg 89%
06:00 +8°C° 0 mm 2 m/S 753 mmHg 82%
07:00 +10°C° 0 mm 2 m/S 754 mmHg 76%
08:00 +13°C° 0 mm 2 m/S 754 mmHg 69%
09:00 +14°C° 0 mm 3 m/S 754 mmHg 64%
10:00 +16°C° 0 mm 3 m/S 753 mmHg 58%
11:00 +18°C° 0 mm 3 m/S 753 mmHg 53%
12:00 +19°C° 0 mm 3 m/S 753 mmHg 52%
13:00 +20°C° 0 mm 2 m/S 753 mmHg 50%
14:00 +21°C° 0 mm 2 m/S 753 mmHg 49%
15:00 +21°C° 0 mm 2 m/S 752 mmHg 52%
16:00 +21°C° 0 mm 2 m/S 752 mmHg 56%
17:00 +22°C° 0 mm 1 m/S 752 mmHg 59%
18:00 +19°C° 0 mm 2 m/S 752 mmHg 64%
19:00 +18°C° 0 mm 2 m/S 752 mmHg 69%
20:00 +16°C° 0 mm 3 m/S 752 mmHg 74%
21:00 +16°C° 0.1 mm 3 m/S 751 mmHg 79%
22:00 +14°C° 0.1 mm 3 m/S 751 mmHg 83%
23:00 +14°C° 0.1 mm 4 m/S 751 mmHg 88%

14 Mai, Freitag

Zeit Temperatur Niederschläge Wind Luftdruck Luftfeuchtigkeit
00:00 +13°C° 0 mm 3 m/S 751 mmHg 89%
01:00 +13°C° 0 mm 3 m/S 751 mmHg 90%
02:00 +13°C° 0 mm 3 m/S 751 mmHg 91%
03:00 +13°C° 0 mm 3 m/S 751 mmHg 92%
04:00 +13°C° 0 mm 3 m/S 751 mmHg 93%
05:00 +14°C° 0 mm 2 m/S 751 mmHg 94%
06:00 +16°C° 0 mm 3 m/S 751 mmHg 87%
07:00 +18°C° 0 mm 3 m/S 750 mmHg 81%
08:00 +20°C° 0 mm 3 m/S 750 mmHg 75%
09:00 +21°C° 0 mm 3 m/S 751 mmHg 67%
10:00 +22°C° 0 mm 3 m/S 751 mmHg 59%
11:00 +25°C° 0 mm 4 m/S 751 mmHg 51%
12:00 +25°C° 0 mm 4 m/S 750 mmHg 49%
13:00 +26°C° 0 mm 4 m/S 750 mmHg 46%
14:00 +27°C° 0 mm 4 m/S 750 mmHg 44%
15:00 +26°C° 0 mm 4 m/S 750 mmHg 47%
16:00 +25°C° 0 mm 4 m/S 750 mmHg 51%
17:00 +25°C° 0 mm 3 m/S 750 mmHg 54%
18:00 +22°C° 0 mm 3 m/S 750 mmHg 58%
19:00 +20°C° 0 mm 3 m/S 750 mmHg 61%
20:00 +19°C° 0 mm 2 m/S 750 mmHg 65%
21:00 +18°C° 0 mm 2 m/S 750 mmHg 68%
22:00 +17°C° 0 mm 2 m/S 750 mmHg 72%
23:00 +16°C° 0 mm 2 m/S 750 mmHg 75%

15 Mai, Samstag

Zeit Temperatur Niederschläge Wind Luftdruck Luftfeuchtigkeit
00:00 +16°C° 0.2 mm 2 m/S 750 mmHg 81%
01:00 +15°C° 0.2 mm 2 m/S 750 mmHg 86%
02:00 +14°C° 0.2 mm 2 m/S 751 mmHg 91%
03:00 +14°C° 0 mm 2 m/S 751 mmHg 91%
04:00 +13°C° 0 mm 3 m/S 751 mmHg 91%
05:00 +13°C° 0 mm 3 m/S 751 mmHg 90%
06:00 +16°C° 0 mm 3 m/S 751 mmHg 84%
07:00 +17°C° 0 mm 3 m/S 751 mmHg 77%
08:00 +19°C° 0 mm 3 m/S 751 mmHg 70%
09:00 +20°C° 0.1 mm 4 m/S 751 mmHg 65%
10:00 +22°C° 0.1 mm 5 m/S 752 mmHg 60%
11:00 +23°C° 0.1 mm 5 m/S 752 mmHg 55%
12:00 +23°C° 0.1 mm 5 m/S 752 mmHg 53%
13:00 +25°C° 0.1 mm 5 m/S 751 mmHg 51%
14:00 +25°C° 0.1 mm 5 m/S 751 mmHg 49%
15:00 +23°C° 0.1 mm 5 m/S 751 mmHg 54%
16:00 +22°C° 0.1 mm 4 m/S 752 mmHg 60%
17:00 +21°C° 0.1 mm 3 m/S 752 mmHg 65%
18:00 +19°C° 0.1 mm 3 m/S 752 mmHg 69%
19:00 +18°C° 0.1 mm 2 m/S 752 mmHg 72%
20:00 +18°C° 0.1 mm 1 m/S 752 mmHg 76%
21:00 +16°C° 0 mm 2 m/S 753 mmHg 79%
22:00 +15°C° 0 mm 2 m/S 753 mmHg 82%
23:00 +15°C° 0 mm 2 m/S 753 mmHg 84%

16 Mai, Sonntag

Zeit Temperatur Niederschläge Wind Luftdruck Luftfeuchtigkeit
00:00 +14°C° 0 mm 2 m/S 753 mmHg 85%
01:00 +14°C° 0 mm 2 m/S 753 mmHg 86%
02:00 +13°C° 0 mm 2 m/S 753 mmHg 87%
03:00 +13°C° 0 mm 2 m/S 753 mmHg 87%
04:00 +13°C° 0 mm 2 m/S 753 mmHg 87%
05:00 +13°C° 0 mm 2 m/S 754 mmHg 86%
06:00 +15°C° 0 mm 2 m/S 754 mmHg 80%
07:00 +17°C° 0 mm 2 m/S 754 mmHg 73%
08:00 +19°C° 0 mm 2 m/S 754 mmHg 66%
09:00 +20°C° 0 mm 2 m/S 753 mmHg 62%
10:00 +21°C° 0 mm 3 m/S 753 mmHg 58%
11:00 +24°C° 0 mm 3 m/S 753 mmHg 54%
12:00 +24°C° 0 mm 3 m/S 753 mmHg 52%
13:00 +25°C° 0 mm 3 m/S 753 mmHg 49%
14:00 +25°C° 0 mm 3 m/S 752 mmHg 47%
15:00 +25°C° 0 mm 3 m/S 752 mmHg 53%
16:00 +23°C° 0 mm 4 m/S 752 mmHg 58%
17:00 +22°C° 0 mm 4 m/S 752 mmHg 63%
18:00 +21°C° 0 mm 4 m/S 752 mmHg 64%
19:00 +20°C° 0 mm 4 m/S 752 mmHg 66%
20:00 +19°C° 0 mm 4 m/S 752 mmHg 68%
21:00 +19°C° 0 mm 4 m/S 751 mmHg 69%
22:00 +18°C° 0 mm 4 m/S 751 mmHg 71%
23:00 +17°C° 0 mm 4 m/S 751 mmHg 72%
Mehr zeigen

Wir brauchen deine Erlaubnis

Meteoprog und unser Service Anbieter werden persönliche Daten aufbewahren, so wie Cookies, Geräte Bezeichnung oder ähnliche Technologien von deinem Gerät und Prozess, so wie Persönliche Daten Inhalte und Werbungen, genauso wie social Media und den Verkehr zu analysieren.

  • Aufbewahrung und/oder Zugang zu deiner Geräte Informationen.

    Cookies, Geräte Bezeichnung oder andere Informationen, können aufbewahrt oder Zugang zu deinem Gerät erhalten, für den Grund, der oben angegeben wird.

  • Personalisierte Werbung und Inhalte, Messungen, Einblick in das Publikum und Produkt Entwicklung.

    Werbungen und Inhalte können personalisiert werden, basierend auf ein Profil. Mehr Daten können besser personalisierte Werbungen und Inhalte hinzufügen. Werbung und Inhalte können gezeigt und gemessen werden. Einblicke über das Publikum, welche die Werbung gesehen haben und den Inhalt, können abgeleitet werden. So wie Daten können genutzt werden, um es zu verbessern oder die Benutzer Erfahrung zu verbessern das System und die Software.

Wenn du “Ich stimme zu” klickst, erlaubst du uns, die Cookies zu benutzen die Geräte Bezeichnung, den Web oder ähnliche Technologien zu benutzen. Deine Settings, können in deinem Gerät bei deinem Browser geändert werden.

Für den bestimmten Zweck, berechtigten Interessen beruhen darauf, mehr als auf den Inhalt. Du kannst mehr darüber in unseren Privaten und Cookie Politik lesen.